This is the latest recevied weather packets stored in our database for station/object K3TLB-13. If no packets are shown the sender has not sent any weather packets the latest 1 day(s).
| Time | Temp. | Humidity | Pressure | Rain* | Wind** | Luminosity | Snow |
|---|---|---|---|---|---|---|---|
| 1836274557 | - | - | 1019.2 hPa | 0 mm | 0 m/s | - | - |
| 1836274410 | - | - | 1019.4 hPa | 0 mm | 0 m/s | - | - |
| 1836274261 | - | - | 1019.2 hPa | 0 mm | 0 m/s | - | - |
| 1836274139 | - | - | 1019.3 hPa | 0 mm | 0 m/s | - | - |
| 1836274108 | - | - | 1019.3 hPa | 0 mm | 0 m/s | - | - |
| 1778046540 | 20° C | 53% | 1009.1 hPa | 0 mm | 1.79 m/s, 188° | - | - |
| 1778046240 | 20° C | 53% | 1009.2 hPa | 0 mm | 2.24 m/s, 181° | - | - |
| 1778045943 | 20° C | 52% | 1009.2 hPa | 0 mm | 2.68 m/s, 230° | - | - |
| 1778045712 | 20° C | 52% | 1009.2 hPa | 0 mm | 2.68 m/s, 113° | - | - |
| 1778045640 | 20° C | 52% | 1009.2 hPa | 0 mm | 2.68 m/s, 113° | - | - |
| 1778045341 | 20° C | 52% | 1009.3 hPa | 0 mm | 2.68 m/s, 227° | - | - |
| 1778045040 | 20° C | 51% | 1009.3 hPa | 0 mm | 2.24 m/s, 192° | - | - |
| 1778044740 | 20° C | 51% | 1009.4 hPa | 0 mm | 2.24 m/s, 168° | - | - |
| 1778044440 | 20° C | 51% | 1009.3 hPa | 0 mm | 2.24 m/s, 227° | - | - |
| 1778044140 | 20° C | 50% | 1009.2 hPa | 0 mm | 2.24 m/s, 131° | - | - |
| 1778043840 | 20° C | 49% | 1009.4 hPa | 0 mm | 1.79 m/s, 173° | - | - |
| 1778043611 | 20° C | 49% | 1009.4 hPa | 0 mm | 2.24 m/s, 198° | - | - |
| 1778043551 | 20° C | 49% | 1009.4 hPa | 0 mm | 2.24 m/s, 198° | - | - |
| 1778043240 | 20° C | 48% | 1009.5 hPa | 0 mm | 2.68 m/s, 166° | - | - |
| 1778042940 | 20.56° C | 48% | 1009.4 hPa | 0 mm | 2.68 m/s, 234° | - | - |
| 1778042640 | 20.56° C | 47% | 1009.4 hPa | 0 mm | 2.68 m/s, 250° | - | - |
| 1778042340 | 20.56° C | 47% | 1009.3 hPa | 0 mm | 2.24 m/s, 199° | - | - |
| 1778042040 | 20.56° C | 47% | 1009.4 hPa | 0 mm | 2.24 m/s, 219° | - | - |
| 1778041992 | 20.56° C | 47% | 1009.4 hPa | 0 mm | 2.24 m/s, 228° | - | - |
| 1778041740 | 20.56° C | 47% | 1009.4 hPa | 0 mm | 2.24 m/s, 228° | - | - |
* Rain latest hour (hover to see other rain measurements)
** Current wind speed in m/s (hover to see current wind gust speed)